EHI
3 2 2 2 2 2 2 2 1 0 0 0 0 0 0 0 0 0 0 0 0 0 0 0 0 0 0 0 0 0 0 0 0 0 0 0 0 0
2 2 3 3 3 3 3 3 2 1 0 0 0 0 0 0 0 0 0 0 0 0 0 0 0 0 0 0 0 0 0 0 0 0 0 0 0 0
1 2 2 3 3 3 3 3 3 2 1 0 0 0 0 0 0 0 0 0 0 0 0 0 0 0 0 0 0 0 0 0 0 0 0 0 0 0
1 1 1 1 1 2 3 3 2 2 1 0 0 0 0 0 0 0 0 0 0 0 0 0 0 0 0 0 0 0 0 0 0 0 0 0 0 0
0 0 0 0 0 1 1 2 2 1 1 0 0 0 0 0 0 0 0 0 0 0 0 0 0 0 0 0 0 0 0 0 0 0 0 0 0 0
0 0 0 0 0 0 1 1 1 0 0 0 0 0 0 0 0 0 0 0 0 0 0 0 0 0 0 0 0 0 0 0 0 0 0 0 0 0
0 0 0 0 0 0 0 0 0 0 0 0 0 0 0 0 0 0 0 0 0 0 0 0 0 0 0 0 0 0 0 0 0 0 0 0 0 0
0 0 0 0 0 0 0 0 0 0 0 0 0 0 0 0 0 0 0 0 0 0 0 0 0 0 0 0 0 0 0 0 0 0 0 0 0 0
0 0 0 0 0 0 0 0 0 0 0 0 0 0 0 0 0 0 0 0 0 0 0 0 0 0 0 0 0 0 0 0 0 0 0 0 0 0
0 0 0 0 0 0 0 0 0 0 0 0 0 0 0 0 0 0 0 0 0 0 0 0 0 0 0 0 0 0 0 0 0 0 0 0 0 0
0 0 0 0 0 0 0 0 0 0 0 0 0 0 0 0 0 0 0 0 0 0 0 0 0 0 0 0 0 0 0 0 0 0 0 0 0 0
0 0 0 0 0 0 0 0 0 0 0 0 0 0 0 0 0 0 0 0 0 0 0 0 0 0 0 0 0 0 0 0 0 0 0 0 0 0
0 0 0 0 0 0 0 0 0 0 0 0 0 0 0 1 1 0 0 0 0 0 0 0 0 0 0 0 0 0 0 0 0 0 0 0 0 0
0 0 0 0 0 0 0 0 0 0 0 0 0 0 1 2 2 1 1 1 0 0 0 0 0 0 0 0 0 0 0 0 0 0 0 0 0 0
0 0 0 0 0 0 0 0 0 0 0 0 0 0 1 1 1 2 2 1 0 0 0 0 0 0 0 0 0 0 0 0 0 0 0 0 0 0
0 0 0 0 0 0 0 0 0 0 0 0 0 0 0 0 0 1 1 0 0 0 0 0 0 0 0 0 0 0 0 0 0 0 0 0 0 0
0 0 0 0 0 0 0 0 0 0 0 0 0 1 0 0 0 0 0 0 0 0 0 0 0 0 0 0 0 0 0 0 0 0 0 0 0 0
0 0 0 0 0 0 0 0 0 0 0 0 0 0 0 0 0 0 1 0 0 0 0 0 0 0 0 0 0 0 0 0 0 0 0 0 0 0
0 0 0 0 0 0 0 0 0 0 0 0 0 0 0 0 0 0 0 0 0 0 0 0 0 0 0 0 0 0 0 0 0 0 0 0 0 0
0 0 0 0 0 0 0 0 0 0 0 0 1 0 0 0 0 0 0 0 0 0 0 0 0 0 0 0 0 0 0 0 0 0 0 0 0 0
0 0 0 0 0 0 0 0 0 0 0 0 0 0 0 0 0 0 0 0 0 0 0 0 0 0 0 0 0 0 0 0 0 0 0 0 0 0
0 0 0 0 0 0 0 0 0 0 0 0 0 0 0 0 0 0 0 0 0 0 0 0 0 0 0 0 0 0 0 0 0 0 0 0 0 0
0 0 0 0 0 0 0 0 0 0 0 0 0 0 0 0 0 0 0 0 0 0 0 0 0 0 0 0 0 0 0 0 0 0 0 0 0 0
Wind_Speed
4 4 3 3 3 2 2 2 3 4 4 3 2 2 2 1 3 3 2 5 7 8 8 7 8 8 8 8 8 7 7 8 9 10 11 12 13 14
3 4 3 3 3 2 3 3 2 3 4 3 3 3 2 3 4 3 3 5 7 8 9 9 8 8 8 8 7 7 7 7 8 9 10 10 11 12
4 4 3 3 3 3 2 2 2 2 4 4 3 3 3 3 2 3 3 4 4 8 9 9 9 9 9 8 8 7 7 7 7 8 9 9 9 10
3 4 4 3 3 3 3 3 3 3 3 5 4 3 3 3 3 3 3 3 3 6 9 10 10 10 9 9 9 8 8 7 7 7 9 9 10 10
3 4 4 4 4 3 3 3 3 4 3 4 5 3 2 2 2 3 3 2 4 5 7 10 11 11 11 10 9 9 9 8 8 8 8 9 10 10
4 4 4 4 4 4 4 3 3 3 3 3 4 3 3 2 1 2 2 2 3 4 4 6 9 11 12 11 11 11 10 10 10 9 8 9 10 10
4 4 4 4 4 4 4 3 3 3 3 3 4 3 3 2 2 2 2 2 3 3 2 3 4 4 6 9 11 12 11 11 10 10 9 9 9 10
5 4 4 3 4 5 6 6 5 4 4 4 4 4 4 3 3 3 2 2 2 2 2 3 3 4 5 5 9 12 12 12 11 11 10 10 9 9
4 4 5 4 4 3 4 6 6 8 9 6 5 6 5 4 3 4 3 3 4 3 2 3 3 3 4 6 11 13 13 13 12 12 11 11 10 10
4 4 4 4 5 3 4 4 4 5 6 5 5 6 6 4 4 4 4 4 4 3 3 3 3 3 4 3 9 13 13 13 13 13 12 12 11 10
4 4 4 3 2 3 3 4 5 5 6 5 6 7 8 8 5 3 3 3 4 3 2 3 3 3 3 3 5 11 12 12 13 13 13 12 12 10
3 2 2 2 2 2 3 4 5 5 5 6 6 7 6 6 7 5 4 4 3 3 2 2 2 2 2 3 3 4 6 9 12 12 13 13 12 7
3 3 2 2 4 4 4 4 6 6 5 6 5 5 4 3 4 5 5 4 4 4 3 2 2 2 2 2 2 3 5 4 5 7 11 13 13 11
4 3 3 6 7 8 6 7 8 6 4 4 4 4 4 3 3 4 5 5 5 6 5 3 3 3 2 3 2 2 3 3 4 5 5 9 11 13
4 6 8 9 9 7 9 9 6 4 4 4 4 4 3 3 3 3 3 4 4 5 5 5 4 3 3 3 3 3 3 3 4 4 5 5 6 6
4 7 9 9 8 8 7 4 4 4 3 4 4 4 3 2 2 2 3 3 3 3 4 4 4 4 4 4 4 3 3 3 3 4 4 4 5 6
5 4 4 4 4 3 3 2 2 2 3 3 4 4 4 3 3 3 2 3 3 3 3 3 4 4 5 4 4 4 3 3 3 3 3 4 4 5
3 4 4 4 4 4 4 3 2 2 2 3 3 3 4 4 4 3 3 3 3 3 3 3 3 2 3 4 5 5 4 4 3 3 3 3 4 4
2 4 4 3 4 4 4 3 3 4 3 3 3 3 3 4 4 3 3 3 3 3 3 3 2 2 4 5 4 6 5 4 3 3 3 3 4 4
2 3 3 3 3 3 3 3 3 3 3 3 3 3 4 4 4 4 4 4 4 3 3 3 3 3 4 5 4 3 5 4 3 3 3 3 3 3
3 3 3 3 3 3 3 3 3 4 4 4 4 4 4 4 4 4 4 5 4 3 4 4 4 5 3 2 3 3 2 4 4 3 2 2 3 2
4 4 3 4 4 4 4 4 4 5 5 5 5 5 5 5 5 5 5 4 4 4 4 3 3 2 2 3 3 3 3 2 3 4 3 3 2 3
3 3 4 4 4 4 4 5 6 5 5 6 5 5 6 6 5 4 4 4 4 5 4 3 3 2 2 3 3 3 3 3 2 2 2 4 6 6
Wind_Direction
276 277 274 284 289 288 283 260 261 287 293 291 287 255 239 228 204 215 209 213 208 212 215 219 224 224 222 225 223 225 229 228 227 229 231 232 231 230
267 269 275 277 288 285 277 275 267 269 284 296 284 276 262 252 221 217 217 225 220 213 214 217 221 221 218 219 219 219 223 223 222 225 228 231 231 227
269 276 276 275 284 281 280 278 273 267 278 287 280 273 258 253 234 229 220 217 215 212 212 214 215 214 216 217 216 217 219 220 222 224 222 223 224 223
279 285 288 286 278 274 277 279 279 273 271 283 286 278 264 248 229 235 238 228 217 219 211 210 211 212 214 215 213 212 215 217 222 226 222 218 219 221
277 279 280 280 280 279 278 278 279 285 276 279 287 283 275 261 244 250 252 247 237 225 215 211 214 214 215 215 213 213 214 217 218 223 226 223 219 218
282 277 276 276 276 281 282 277 283 288 287 287 289 291 285 275 260 251 257 245 251 238 227 216 210 214 217 216 217 218 217 217 217 217 219 217 213 211
290 281 272 280 282 279 288 287 291 287 289 289 291 300 295 296 280 264 260 247 253 245 225 223 202 208 215 219 220 219 216 214 213 212 215 217 215 212
293 288 274 276 279 266 264 264 261 268 278 281 284 288 288 282 278 279 276 278 269 249 235 249 213 210 214 209 209 208 210 212 212 212 214 216 218 214
290 291 294 298 295 286 278 266 266 261 250 249 264 271 274 272 272 277 272 274 269 260 247 255 236 229 228 220 204 204 206 208 209 211 212 213 217 219
288 288 288 286 298 310 303 302 294 289 275 251 251 263 272 272 266 265 265 274 266 257 240 252 253 243 238 220 203 201 205 207 208 210 210 211 213 215
297 304 300 302 329 318 296 300 302 301 300 284 267 266 271 269 262 272 273 269 274 265 233 231 247 251 245 232 214 206 206 208 210 210 211 212 213 214
306 308 327 327 321 310 294 296 295 298 311 311 298 282 268 259 244 225 243 261 274 273 248 237 245 243 256 234 204 199 207 217 217 217 217 216 210 207
309 315 316 313 295 287 279 271 272 289 296 289 287 283 271 256 237 227 227 234 246 255 252 242 255 245 243 258 234 208 200 202 206 220 220 218 210 202
301 308 317 315 301 290 278 266 276 292 279 281 285 288 285 277 267 252 234 229 234 241 249 249 257 253 257 265 259 233 219 214 203 207 208 210 214 214
296 309 306 294 293 284 270 265 264 256 259 272 280 282 278 276 281 281 273 255 250 248 249 241 242 255 253 257 261 249 235 228 216 213 209 198 201 202
301 300 291 281 276 275 275 258 244 248 254 272 283 287 290 289 286 284 282 276 264 262 257 251 241 243 255 258 255 255 240 235 224 224 220 215 208 203
312 294 290 293 292 286 283 275 268 268 273 276 281 289 292 290 282 275 277 282 278 271 272 268 252 243 248 250 261 260 255 251 240 223 222 227 221 210
305 285 294 302 310 317 317 319 311 308 305 302 300 300 304 304 302 299 294 287 288 290 282 273 270 260 264 257 234 248 253 252 248 236 224 232 238 227
276 286 300 314 325 328 327 335 327 317 314 316 312 314 315 309 306 302 295 289 284 280 276 269 266 260 268 275 262 229 235 246 244 236 233 232 241 239
272 286 303 318 321 318 321 329 330 335 338 331 325 326 323 318 315 309 302 294 292 291 288 284 272 259 256 264 270 268 235 234 233 237 243 244 242 230
309 309 320 321 321 318 319 331 340 343 344 339 338 336 326 318 313 311 310 308 297 289 296 292 278 274 272 282 281 277 259 234 226 219 219 240 257 252
317 324 334 336 339 340 344 350 353 351 347 347 344 336 327 317 313 311 314 316 313 307 305 303 302 300 289 283 279 279 282 274 249 227 220 218 226 233
334 341 344 344 349 347 353 355 357 359 354 346 338 329 325 321 315 314 317 319 318 314 311 313 307 292 289 282 281 281 282 281 275 270 267 257 242 249